| time (UTC) | temp F | wind direction | speed MPH | gust MPH | rain 1hr in | rain 24hr in | rain mn in | humidity % | barometer mb |
| 20260504213505 | 67 | 285 | 2.0 | 6.0 | 0.00 | 0.00 | 0.00 | 49 | 1011.5 |
| 20260504213006 | 67 | 269 | 3.0 | 11.0 | 0.00 | 0.00 | 0.00 | 50 | 1011.5 |
| 20260504212503 | 66 | 289 | 4.0 | 11.0 | 0.00 | 0.00 | 0.00 | 49 | 1011.4 |
| 20260504212011 | 66 | 288 | 5.0 | 20.0 | 0.00 | 0.00 | 0.00 | 49 | 1011.5 |
| 20260504211515 | 66 | 270 | 4.0 | 20.0 | 0.00 | 0.00 | 0.00 | 49 | 1011.5 |
| 20260504211005 | 67 | 290 | 5.0 | 14.0 | 0.00 | 0.00 | 0.00 | 49 | 1011.4 |
| 20260504210506 | 67 | 242 | 3.0 | 13.0 | 0.00 | 0.00 | 0.00 | 46 | 1011.4 |
| 20260504210029 | 67 | 301 | 5.0 | 12.0 | 0.00 | 0.00 | 0.00 | 45 | 1011.3 |
| 20260504205505 | 67 | 287 | 8.0 | 12.0 | 0.00 | 0.00 | 0.00 | 46 | 1011.2 |
| 20260504205006 | 67 | 273 | 5.0 | 14.0 | 0.00 | 0.00 | 0.00 | 46 | 1011.3 |
| 20260504204529 | 67 | 294 | 5.0 | 16.0 | 0.00 | 0.00 | 0.00 | 45 | 1011.2 |
| 20260504204009 | 68 | 338 | 9.0 | 18.0 | 0.00 | 0.00 | 0.00 | 45 | 1011.4 |
| 20260504203509 | 68 | 266 | 6.0 | 24.0 | 0.00 | 0.00 | 0.00 | 44 | 1011.3 |
| 20260504203026 | 68 | 218 | 7.0 | 25.0 | 0.00 | 0.00 | 0.00 | 44 | 1011.3 |
| 20260504202510 | 68 | 234 | 10.0 | 25.0 | 0.00 | 0.00 | 0.00 | 43 | 1011.2 |
| 20260504202006 | 68 | 269 | 8.0 | 19.0 | 0.00 | 0.00 | 0.00 | 43 | 1011.4 |
| 20260504201526 | 68 | 307 | 10.0 | 19.0 | 0.00 | 0.00 | 0.00 | 43 | 1011.3 |
| 20260504201002 | 68 | 182 | 10.0 | 18.0 | 0.00 | 0.00 | 0.00 | 43 | 1011.3 |
| 20260504200505 | 68 | 298 | 7.0 | 15.0 | 0.00 | 0.00 | 0.00 | 43 | 1011.3 |
| 20260504200010 | 68 | 276 | 6.0 | 17.0 | 0.00 | 0.00 | 0.00 | 43 | 1011.2 |
| 20260504195506 | 68 | 258 | 6.0 | 18.0 | 0.00 | 0.00 | 0.00 | 42 | 1011.1 |
| 20260504195008 | 68 | 297 | 10.0 | 18.0 | 0.00 | 0.00 | 0.00 | 42 | 1011.1 |
| 20260504194518 | 69 | 287 | 8.0 | 16.0 | 0.00 | 0.00 | 0.00 | 42 | 1011.1 |
| 20260504194007 | 69 | 258 | 7.0 | 15.0 | 0.00 | 0.00 | 0.00 | 42 | 1011.1 |
| 20260504193506 | 69 | 313 | 6.0 | 15.0 | 0.00 | 0.00 | 0.00 | 42 | 1011.2 |
| 20260504193026 | 69 | 138 | 7.0 | 16.0 | 0.00 | 0.00 | 0.00 | 42 | 1011.2 |
| 20260504192508 | 69 | 211 | 6.0 | 16.0 | 0.00 | 0.00 | 0.00 | 42 | 1011.3 |
| 20260504192010 | 69 | 277 | 9.0 | 23.0 | 0.00 | 0.00 | 0.00 | 42 | 1011.4 |
| 20260504191526 | 69 | 229 | 11.0 | 23.0 | 0.00 | 0.00 | 0.00 | 42 | 1011.4 |
| 20260504191011 | 69 | 232 | 8.0 | 14.0 | 0.00 | 0.00 | 0.00 | 42 | 1011.4 |
| 20260504190506 | 69 | 290 | 5.0 | 19.0 | 0.00 | 0.00 | 0.00 | 44 | 1011.4 |
| 20260504190006 | 68 | 219 | 8.0 | 19.0 | 0.00 | 0.00 | 0.00 | 45 | 1011.6 |
| 20260504185506 | 68 | 319 | 7.0 | 15.0 | 0.00 | 0.00 | 0.00 | 44 | 1011.6 |
| 20260504185006 | 68 | 267 | 5.0 | 15.0 | 0.00 | 0.00 | 0.00 | 46 | 1011.7 |
| 20260504184514 | 67 | 223 | 9.0 | 19.0 | 0.00 | 0.00 | 0.00 | 45 | 1011.8 |
| 20260504184006 | 67 | 282 | 11.0 | 19.0 | 0.00 | 0.00 | 0.00 | 47 | 1012.0 |
| 20260504183507 | 67 | 282 | 6.0 | 23.0 | 0.00 | 0.00 | 0.00 | 49 | 1012.0 |
| 20260504183019 | 66 | 305 | 9.0 | 23.0 | 0.00 | 0.00 | 0.00 | 47 | 1012.1 |
| 20260504182508 | 66 | 298 | 7.0 | 19.0 | 0.00 | 0.00 | 0.00 | 46 | 1012.2 |
| 20260504182008 | 67 | 229 | 5.0 | 19.0 | 0.00 | 0.00 | 0.00 | 47 | 1012.3 |
| 20260504181521 | 67 | 280 | 6.0 | 19.0 | 0.00 | 0.00 | 0.00 | 47 | 1012.3 |
| 20260504181008 | 66 | 223 | 7.0 | 19.0 | 0.00 | 0.00 | 0.00 | 49 | 1012.3 |
| 20260504180510 | 66 | 259 | 5.0 | 18.0 | 0.00 | 0.00 | 0.00 | 51 | 1012.4 |
| 20260504180025 | 65 | 288 | 8.0 | 18.0 | 0.00 | 0.00 | 0.00 | 50 | 1012.4 |
| 20260504175506 | 65 | 223 | 8.0 | 17.0 | 0.00 | 0.00 | 0.00 | 49 | 1012.6 |
| 20260504175006 | 65 | 307 | 3.0 | 18.0 | 0.00 | 0.00 | 0.00 | 52 | 1012.3 |
| 20260504174510 | 65 | 278 | 7.0 | 18.0 | 0.00 | 0.00 | 0.00 | 51 | 1012.7 |
| 20260504174006 | 64 | 325 | 6.0 | 20.0 | 0.00 | 0.00 | 0.00 | 52 | 1012.8 |
| 20260504173504 | 64 | 279 | 10.0 | 20.0 | 0.00 | 0.00 | 0.00 | 51 | 1012.8 |
| 20260504173018 | 65 | 242 | 8.0 | 18.0 | 0.00 | 0.00 | 0.00 | 52 | 1013.0 |
| 20260504172507 | 64 | 225 | 7.0 | 18.0 | 0.00 | 0.00 | 0.00 | 53 | 1012.9 |
| 20260504172010 | 64 | 259 | 9.0 | 16.0 | 0.00 | 0.00 | 0.00 | 54 | 1013.0 |
| 20260504171524 | 64 | 270 | 5.0 | 15.0 | 0.00 | 0.00 | 0.00 | 52 | 1013.1 |
| 20260504171007 | 63 | 360 | 6.0 | 20.0 | 0.00 | 0.00 | 0.00 | 54 | 1013.2 |
| 20260504170517 | 63 | 253 | 7.0 | 20.0 | 0.00 | 0.00 | 0.00 | 53 | 1013.3 |
| 20260504151007 | 61 | 304 | 7.0 | 23.0 | 0.00 | 0.00 | 0.00 | 50 | 1014.5 |
| 20260504150510 | 61 | 262 | 13.0 | 23.0 | 0.00 | 0.00 | 0.00 | 50 | 1014.5 |
| 20260504141008 | 60 | 268 | 6.0 | 17.0 | 0.00 | 0.00 | 0.00 | 49 | 1014.4 |
| 20260504140507 | 60 | 272 | 3.0 | 21.0 | 0.00 | 0.00 | 0.00 | 50 | 1014.3 |
| 20260504130519 | 55 | 232 | 2.0 | 10.0 | 0.00 | 0.00 | 0.00 | 56 | 1014.4 |
| 20260504110503 | 41 | 272 | 0.0 | 2.0 | 0.00 | 0.00 | 0.00 | 88 | 1015.0 |
| 20260504100507 | 44 | 215 | 0.0 | 2.0 | 0.00 | 0.00 | 0.00 | 81 | 1015.1 |
| 20260504082005 | 46 | 320 | 2.0 | 5.0 | 0.00 | 0.00 | 0.00 | 70 | 1015.2 |
| 20260504081530 | 47 | 321 | 1.0 | 4.0 | 0.00 | 0.00 | 0.00 | 68 | 1015.2 |
| 20260504081002 | 47 | 352 | 0.0 | 5.0 | 0.00 | 0.00 | 0.00 | 68 | 1015.2 |
| 20260504080503 | 47 | 305 | 1.0 | 5.0 | 0.00 | 0.00 | 0.00 | 66 | 1015.3 |
| 20260504050508 | 42 | 275 | 0.0 | 4.0 | 0.00 | 0.00 | 0.00 | 74 | 1016.0 |
| 20260504050018 | 43 | 289 | 1.0 | 4.0 | 0.00 | 0.00 | 0.00 | 74 | 1016.0 |
| 20260504045507 | 43 | 309 | 2.0 | 4.0 | 0.00 | 0.00 | 0.00 | 74 | 1016.0 |
| 20260504045006 | 43 | 306 | 1.0 | 2.0 | 0.00 | 0.00 | 0.00 | 74 | 1016.0 |
| 20260504044524 | 43 | 306 | 1.0 | 2.0 | 0.00 | 0.00 | 0.00 | 74 | 1015.9 |
| 20260504044006 | 43 | 306 | 1.0 | 2.0 | 0.00 | 0.00 | 0.00 | 73 | 1015.9 |
| 20260504043510 | 43 | 306 | 0.0 | 1.0 | 0.00 | 0.00 | 0.00 | 73 | 1015.8 |
| 20260504043024 | 44 | 306 | 0.0 | 0.0 | 0.00 | 0.00 | 0.00 | 72 | 1015.8 |
| 20260504042510 | 44 | 306 | 0.0 | 0.0 | 0.00 | 0.00 | 0.00 | 71 | 1015.8 |
| 20260504042011 | 44 | 306 | 0.0 | 0.0 | 0.00 | 0.00 | 0.00 | 71 | 1015.9 |
| 20260504041539 | 44 | 306 | 0.0 | 1.0 | 0.00 | 0.00 | 0.00 | 71 | 1015.9 |
| 20260504041003 | 44 | 306 | 0.0 | 1.0 | 0.00 | 0.00 | 0.00 | 71 | 1015.9 |
| 20260504040509 | 44 | 306 | 0.0 | 1.0 | 0.00 | 0.00 | 0.00 | 72 | 1016.0 |
| 20260504040021 | 44 | 306 | 0.0 | 2.0 | 0.00 | 0.00 | 0.00 | 72 | 1015.9 |
| 20260504035507 | 44 | 306 | 0.0 | 3.0 | 0.00 | 0.00 | 0.00 | 72 | 1015.9 |
| 20260504035008 | 44 | 306 | 1.0 | 3.0 | 0.00 | 0.00 | 0.00 | 70 | 1016.0 |
| 20260504034523 | 44 | 273 | 0.0 | 3.0 | 0.00 | 0.00 | 0.00 | 69 | 1016.0 |
| 20260504034007 | 44 | 273 | 1.0 | 3.0 | 0.00 | 0.00 | 0.00 | 68 | 1015.8 |
| 20260504033506 | 44 | 301 | 1.0 | 3.0 | 0.00 | 0.00 | 0.00 | 68 | 1016.0 |
| 20260504033024 | 44 | 288 | 0.0 | 2.0 | 0.00 | 0.00 | 0.00 | 71 | 1015.8 |
| 20260504032509 | 44 | 322 | 0.0 | 4.0 | 0.00 | 0.00 | 0.00 | 72 | 1015.8 |
| 20260504032011 | 44 | 322 | 1.0 | 4.0 | 0.00 | 0.00 | 0.00 | 70 | 1015.8 |
| 20260504031526 | 44 | 279 | 2.0 | 3.0 | 0.00 | 0.00 | 0.00 | 67 | 1016.0 |
| 20260504031009 | 44 | 268 | 1.0 | 3.0 | 0.00 | 0.00 | 0.00 | 68 | 1016.0 |
| 20260504030509 | 44 | 248 | 0.0 | 3.0 | 0.00 | 0.00 | 0.00 | 68 | 1016.0 |
| 20260504030034 | 45 | 268 | 1.0 | 3.0 | 0.00 | 0.00 | 0.00 | 68 | 1016.0 |
| 20260504025507 | 45 | 282 | 1.0 | 4.0 | 0.00 | 0.00 | 0.00 | 67 | 1015.9 |
| 20260504025007 | 45 | 292 | 2.0 | 4.0 | 0.00 | 0.00 | 0.00 | 66 | 1016.0 |
| 20260504024519 | 45 | 298 | 2.0 | 4.0 | 0.00 | 0.00 | 0.00 | 68 | 1016.0 |
| 20260504024006 | 45 | 292 | 1.0 | 2.0 | 0.00 | 0.00 | 0.00 | 66 | 1016.0 |
| 20260504023506 | 45 | 284 | 1.0 | 3.0 | 0.00 | 0.00 | 0.00 | 66 | 1016.0 |
| 20260504023022 | 45 | 284 | 1.0 | 3.0 | 0.00 | 0.00 | 0.00 | 67 | 1016.1 |
| 20260504022507 | 45 | 308 | 0.0 | 4.0 | 0.00 | 0.00 | 0.00 | 67 | 1016.1 |
| 20260504022009 | 45 | 308 | 1.0 | 4.0 | 0.00 | 0.00 | 0.00 | 68 | 1016.1 |
| 20260504021527 | 46 | 321 | 2.0 | 3.0 | 0.00 | 0.00 | 0.00 | 66 | 1016.1 |
| 20260504021007 | 46 | 306 | 2.0 | 3.0 | 0.00 | 0.00 | 0.00 | 64 | 1016.2 |
| 20260504020510 | 46 | 294 | 1.0 | 3.0 | 0.00 | 0.00 | 0.00 | 64 | 1016.2 |
| 20260504020036 | 46 | 296 | 0.0 | 2.0 | 0.00 | 0.00 | 0.00 | 65 | 1016.2 |
| 20260504015509 | 46 | 294 | 0.0 | 1.0 | 0.00 | 0.00 | 0.00 | 63 | 1016.2 |
| 20260504015010 | 46 | 294 | 0.0 | 2.0 | 0.00 | 0.00 | 0.00 | 64 | 1016.1 |
| 20260504014530 | 46 | 294 | 1.0 | 2.0 | 0.00 | 0.00 | 0.00 | 62 | 1016.1 |
| 20260504014010 | 46 | 289 | 0.0 | 3.0 | 0.00 | 0.00 | 0.00 | 60 | 1016.1 |
| 20260504013511 | 46 | 276 | 1.0 | 4.0 | 0.00 | 0.00 | 0.00 | 61 | 1016.1 |
| 20260504013024 | 46 | 268 | 1.0 | 4.0 | 0.00 | 0.00 | 0.00 | 60 | 1016.0 |
| 20260504012510 | 46 | 257 | 1.0 | 4.0 | 0.00 | 0.00 | 0.00 | 60 | 1016.0 |
| 20260504012011 | 46 | 298 | 2.0 | 4.0 | 0.00 | 0.00 | 0.00 | 60 | 1016.0 |
| 20260504011503 | 46 | 298 | 1.0 | 3.0 | 0.00 | 0.00 | 0.00 | 60 | 1015.8 |
| 20260504011002 | 46 | 277 | 1.0 | 3.0 | 0.00 | 0.00 | 0.00 | 59 | 1015.7 |
| 20260504010502 | 46 | 268 | 1.0 | 3.0 | 0.00 | 0.00 | 0.00 | 58 | 1015.7 |
| 20260504010010 | 46 | 298 | 1.0 | 7.0 | 0.00 | 0.00 | 0.00 | 58 | 1015.7 |
| 20260504005503 | 46 | 300 | 1.0 | 7.0 | 0.00 | 0.00 | 0.00 | 55 | 1015.6 |
| 20260504005003 | 47 | 266 | 2.0 | 6.0 | 0.00 | 0.00 | 0.00 | 56 | 1015.6 |
| 20260504004514 | 46 | 306 | 2.0 | 4.0 | 0.00 | 0.00 | 0.00 | 57 | 1015.5 |
| 20260504004007 | 47 | 296 | 0.0 | 0.0 | 0.00 | 0.00 | 0.00 | 58 | 1015.4 |
| 20260504003508 | 47 | 296 | 0.0 | 0.0 | 0.00 | 0.00 | 0.00 | 56 | 1015.3 |
| 20260504003019 | 48 | 296 | 0.0 | 0.0 | 0.00 | 0.00 | 0.00 | 56 | 1015.4 |
| 20260504002508 | 48 | 296 | 0.0 | 2.0 | 0.00 | 0.00 | 0.00 | 54 | 1015.4 |
| 20260504002008 | 49 | 296 | 0.0 | 4.0 | 0.00 | 0.00 | 0.00 | 54 | 1015.4 |
| 20260504001525 | 49 | 297 | 1.0 | 4.0 | 0.00 | 0.00 | 0.00 | 48 | 1015.5 |
| 20260504001008 | 50 | 301 | 2.0 | 7.0 | 0.00 | 0.00 | 0.00 | 47 | 1015.5 |
| 20260504000507 | 51 | 306 | 1.0 | 7.0 | 0.00 | 0.00 | 0.00 | 45 | 1015.4 |
| 20260504000004 | 51 | 320 | 1.0 | 7.0 | 0.00 | 0.00 | 0.00 | 45 | 1015.4 |
| 20260503235503 | 51 | 261 | 1.0 | 5.0 | 0.00 | 0.00 | 0.00 | 42 | 1015.3 |
| 20260503235003 | 51 | 287 | 2.0 | 8.0 | 0.00 | 0.00 | 0.00 | 40 | 1015.3 |
| 20260503234508 | 52 | 334 | 3.0 | 8.0 | 0.00 | 0.00 | 0.00 | 40 | 1015.3 |
| 20260503234004 | 52 | 313 | 3.0 | 8.0 | 0.00 | 0.00 | 0.00 | 39 | 1015.4 |
| 20260503233503 | 53 | 319 | 2.0 | 13.0 | 0.00 | 0.00 | 0.00 | 39 | 1015.3 |
| 20260503233018 | 53 | 281 | 4.0 | 13.0 | 0.00 | 0.00 | 0.00 | 38 | 1015.4 |
| 20260503232504 | 54 | 308 | 7.0 | 13.0 | 0.00 | 0.00 | 0.00 | 37 | 1015.4 |
| 20260503232010 | 54 | 329 | 3.0 | 13.0 | 0.00 | 0.00 | 0.00 | 37 | 1015.4 |
| 20260503231518 | 54 | 284 | 4.0 | 13.0 | 0.00 | 0.00 | 0.00 | 36 | 1015.4 |
| 20260503231007 | 55 | 304 | 3.0 | 8.0 | 0.00 | 0.00 | 0.00 | 36 | 1015.4 |
| 20260503230509 | 55 | 338 | 2.0 | 10.0 | 0.00 | 0.00 | 0.00 | 35 | 1015.3 |
| 20260503230036 | 54 | 281 | 4.0 | 14.0 | 0.00 | 0.00 | 0.00 | 35 | 1015.3 |
| 20260503225507 | 54 | 265 | 5.0 | 18.0 | 0.00 | 0.00 | 0.00 | 36 | 1015.4 |
| 20260503225007 | 54 | 328 | 11.0 | 18.0 | 0.00 | 0.00 | 0.00 | 36 | 1015.4 |
| 20260503224526 | 54 | 333 | 5.0 | 12.0 | 0.00 | 0.00 | 0.00 | 36 | 1015.4 |
| 20260503224005 | 54 | 299 | 4.0 | 12.0 | 0.00 | 0.00 | 0.00 | 36 | 1015.4 |
| 20260503223503 | 55 | 285 | 7.0 | 13.0 | 0.00 | 0.00 | 0.00 | 37 | 1015.4 |
| 20260503223008 | 54 | 299 | 4.0 | 14.0 | 0.00 | 0.00 | 0.00 | 35 | 1015.4 |
| 20260503222503 | 55 | 317 | 10.0 | 14.0 | 0.00 | 0.00 | 0.00 | 37 | 1015.4 |
| 20260503222007 | 55 | 296 | 4.0 | 12.0 | 0.00 | 0.00 | 0.00 | 37 | 1015.4 |
| 20260503221515 | 55 | 320 | 5.0 | 12.0 | 0.00 | 0.00 | 0.00 | 34 | 1015.3 |
| 20260503221008 | 55 | 318 | 7.0 | 12.0 | 0.00 | 0.00 | 0.00 | 35 | 1015.3 |
| 20260503220506 | 55 | 317 | 5.0 | 13.0 | 0.00 | 0.00 | 0.00 | 35 | 1015.2 |
| 20260503220021 | 55 | 333 | 4.0 | 13.0 | 0.00 | 0.00 | 0.00 | 35 | 1015.2 |
| 20260503215507 | 55 | 272 | 4.0 | 14.0 | 0.00 | 0.00 | 0.00 | 35 | 1015.2 |
| 20260503215007 | 55 | 336 | 5.0 | 14.0 | 0.00 | 0.00 | 0.00 | 35 | 1015.2 |
| 20260503214536 | 55 | 331 | 8.0 | 13.0 | 0.00 | 0.00 | 0.00 | 36 | 1015.1 |
| 20260503214010 | 55 | 330 | 2.0 | 7.0 | 0.00 | 0.00 | 0.00 | 34 | 1015.2 |